Regional Weather Roundup
Issued by NWS Sterling, VA

Home | Current Version | Previous Version | Graphics & Text | Print | Product List | Glossary On
Versions: 1 2 3 4 5 6 7 8 9 10 11 12 13 14 15 16 17 18 19 20 21 22 23 24 25 26 27 28 29 30 31 32 33 34 35 36 37 38 39 40 41 42 43 44 45 46 47 48 49 50
000
ASUS41 KLWX 242310
RWRLWX

REGIONAL WEATHER ROUNDUP
NATIONAL WEATHER SERVICE BALTIMORE MD/WASHINGTON DC
600 PM EST SAT JAN 24 2015

Note: "FAIR" indicates few or no clouds below 12,000 feet
with no significant weather and/or obstructions to visibility.
 TC=TEMPERATURE CELSIUS

 * =Non NWS site. Station does not report precipitation (e.g. rain,
    snow, etc.), thunder, or fog.

DCZ001-MDZ009-015-VAZ040>042-051-053>054-250000-
WASHINGTON METRO

CITY           SKY/WX    TMP DP  RH WIND       PRES   REMARKS
WASHINGTON NAT PTCLDY    43  25  49 NW12G20   29.55R
DULLES         PTCLDY    38  24  57 NW16      29.55R WCI  29
FT BELVOIR     CLEAR     41  26  56 W15       29.56R
QUANTICO       CLEAR     38  33  82 W6        29.58R
COLLEGE PARK*  CLEAR     41  28  60 W8        29.53R
LEESBURG*      CLEAR     37  28  70 NW7G23    29.56R
MANASSAS*      CLEAR     37  30  75 W3        29.55R
GAITHERSBURG*  PTCLDY    37  23  56 W16G23    29.55R WCI  28

$$

MDZ006>007-011-014-250000-
BALTIMORE METRO

CITY           SKY/WX    TMP DP  RH WIND       PRES   REMARKS
BWI AIRPORT    PTCLDY    38  26  62 W16G22    29.50R WCI  29
MD SCIENCE CTR   N/A     38  29  70 MISG      29.50R
MARTIN STATE   PTCLDY    39  32  75 W7        29.52R
ANNAPOLIS      PTCLDY    39  29  67 W8        29.51R
FORT MEADE*    CLEAR     36  28  75 W9G17     29.54R WCI  29

$$

MDZ012-015-019>023-250000-
MARYLAND EASTERN SHORE

CITY           SKY/WX    TMP DP  RH WIND       PRES   REMARKS
OCEAN CITY     CLOUDY    38  36  92 NW12G21   29.49R
SALISBURY      CLOUDY    40  36  86 W10       29.51R
BAY BRIDGE AP*   N/A     37  32  81 W7        29.52R
CAMBRIDGE*     PTCLDY    41  34  75 W7        29.52R
EASTON*        PTCLDY    39  34  81 W6        29.55R

$$

MDZ017>025-250000-
SOUTHERN MARYLAND

CITY           SKY/WX    TMP DP  RH WIND       PRES   REMARKS
PATUXENT RIVER PTCLDY    38  32  79 W12       29.54R
ST INIGOES     PTCLDY    39  32  76 W10       29.54R
LEONARDTOWN*   PTCLDY    36  32  87 W7        29.55R

$$

MDZ003>005-250000-
NORTH CENTRAL MARYLAND

CITY           SKY/WX    TMP DP  RH WIND       PRES   REMARKS
FREDERICK*     PTCLDY    39  21  48 NW10G21   29.56R
HAGERSTOWN APT CLOUDY    37  23  56 W17       29.54R WCI  27
WESTMINSTER*   PTCLDY    37  25  60 NW9       29.50R

$$

MDZ501>502-250000-
WESTERN MARYLAND

CITY           SKY/WX    TMP DP  RH WIND       PRES   REMARKS
OAKLAND*       CLOUDY    23 N/A N/A W12G18    29.50S FOG     WCI  12
CUMBERLAND*    CLOUDY    36  27  69 W6        29.63R

$$

VAZ025>031-250000-
SHENANDOAH VALLEY

CITY           SKY/WX    TMP DP  RH WIND       PRES   REMARKS
WINCHESTER*    MOCLDY    37  21  52 W16       29.56R WCI  28
FRONT ROYAL*   FAIR      37  23  56 W16G24    29.56R WCI  28
LURAY*         CLOUDY    39  27  60 S13       29.58R
NEW MARKET*    MOCLDY    37  22  53 W6        29.58R
STAUNTON*      MOCLDY    38  22  53 SW8       29.61S
WAYNESBORO*    FAIR      35  22  59 W7        29.59R

$$

WVZ021-048>050-054>055-250000-
EASTERN WEST VIRGINIA PANHANDLE

CITY           SKY/WX    TMP DP  RH WIND       PRES   REMARKS
MARTINSBURG    CLOUDY    39  23  52 W16G23    29.56R
PETERSBURG*    CLOUDY    37  21  52 E3        29.62R

$$

VAZ036>039-050-250000-
CENTRAL FOOTHILLS

CITY           SKY/WX    TMP DP  RH WIND       PRES   REMARKS
CHARLOTTESVILL CLEAR     42  21  43 VRB5      29.58R
CULPEPER*      CLEAR     43  27  52 W7        29.57R
ORANGE*        PTCLDY    41  30  65 SW5       29.59R
GORDONSVILLE*  FAIR      40  24  53 SW6       29.58R
WARRENTON*     FAIR      39  32  76 W6        29.56R

$$

VAZ055>057-250000-
NORTH AND CENTRAL PIEDMONT

CITY           SKY/WX    TMP DP  RH WIND       PRES   REMARKS
FREDERICKSBRG* CLEAR     41  38  87 W3        29.56R
STAFFORD*      CLEAR     39  39 100 W5        29.61R

$$

NCZ024-NYZ072-PAZ021-071-VAZ022-071-250000-
OTHER REGIONAL OBSERVATIONS

CITY           SKY/WX    TMP DP  RH WIND       PRES   REMARKS
NEW YORK CITY  CLOUDY    38  32  79 W8        29.36R
PHILADELPHIA   CLOUDY    37  32  82 W10       29.45R
PITTSBURGH     CLOUDY    29  24  82 SW7G17    29.61R
ROANOKE        PTCLDY    36  20  52 W13G22    29.70R WCI  27
RICHMOND       PTCLDY    42  38  85 W8        29.58R
RALEIGH        CLEAR     45  28  51 W6        29.70R

$$

ANZ530>537-250000-
MARINE OBSERVATIONS

STATION/POSITION TIME  TEMP    WIND        PRES
                       AIR SEA DIR/SP/G
                 (UTC) (F)     (DEG/KT/KT) (MB)
THOMAS PT LIGHT  2300   40 37  280/ 15/ 18 1000.6R
BALT KEY BRIDGE  2300   40     250/ 14/ 17  998.8R
COVE POINT       2300   40     310/  8/ 10  999.9R
LEWISETTA        2300   40 38  280/  6/  8 1000.4R
SOLOMONS ISLAND  2300      38                N/A
PINEY POINT      2300          310/ 11/ 11   N/A

$$




USA.gov is the U.S. government's official web portal to all federal, state and local government web resources and services.